Regional Weather Roundup
Issued by NWS

Home | Current Version | Previous Version | Text Only | Print | Product List | Glossary On
Versions: 1 2 3 4 5 6 7 8 9 10 11 12 13 14 15 16 17 18 19 20 21 22 23 24 25 26 27 28
000
ASUS45 KBOI 010710
RWRID

IDAHO REGIONAL WEATHER ROUNDUP
NATIONAL WEATHER SERVICE BOISE ID
100 AM MDT WED JUN 01 2016

NOTE: "FAIR" INDICATES FEW OR NO CLOUDS BELOW 12000 FEET
WITH NO SIGNIFICANT WEATHER AND/OR OBSTRUCTIONS TO VISIBILITY

IDZ012-014-010800-
SOUTHWEST IDAHO


CITY           SKY/WX    TMP DP  RH WIND       PRES   REMARKS
BOISE          CLEAR     62  29  28 SE9       30.00F
CALDWELL       CLEAR     55  42  61 NE6       29.99S
MOUNTAIN HOME  CLEAR     60  26  26 NW3       30.01S
$$

IDZ016-017-010800-
SOUTHCENTRAL IDAHO


CITY           SKY/WX    TMP DP  RH WIND       PRES   REMARKS
BURLEY         CLEAR     52  39  61 S10       30.06S
JEROME         CLEAR     57  33  40 S7        30.06S
TWIN FALLS     CLEAR     53  33  46 S14       30.06F
$$

IDZ019>023-010800-
SOUTHEAST IDAHO


CITY           SKY/WX    TMP DP  RH WIND       PRES   REMARKS
IDAHO FALLS    CLEAR     44  39  82 N3        30.11S
POCATELLO      CLEAR     48  38  68 CALM      30.09S
REXBURG        CLEAR     48  38  68 NE7       30.12R
$$

IDZ006-010-011-018-031-032-010800-
CENTRAL IDAHO MOUNTAINS


CITY           SKY/WX    TMP DP  RH WIND       PRES   REMARKS
MCCALL         CLEAR     52  30  43 N3        30.10F
HAILEY         CLEAR     50  37  62 NW9       30.13S
STANLEY          N/A     38  27  64 S5        30.20S WCI  34
SALMON         CLEAR     46  36  66 SE5       30.08R
CHALLIS        CLEAR     51  32  48 SE5       30.11S
$$

IDZ002-004-006-007-026-010800-
NORTHERN IDAHO


CITY           SKY/WX    TMP DP  RH WIND       PRES   REMARKS
LEWISTON       PTCLDY    61  42  49 CALM      29.98S
LOWELL           N/A     52  46  80 CALM      30.05F
COEUR D`ALENE  MOCLDY    55  48  76 E5        30.00S
MULLAN PASS    MOCLDY    51  26  37 CALM      30.14F
$$




USA.gov is the U.S. government's official web portal to all federal, state and local government web resources and services.